Вернуться в каталог

STARLINK-11529

АктивенСвязьVLEO
NORAD 62599·PAYLOAD·🇺🇸 United States

Запущен Jan 13, 2025 с Cape Canaveral Space Force Station

Loading…

Ближайшие Пролёты (ближайшие 24 часа)

TLE

СвежийSource: CelesTrak SupGP

Эпоха: Sep 15, 2026, 03:23 UTC

1 62599C 25008N   26258.14145833 -.00091413  00000+0 -70961-3 0  2581
2 62599  43.0009  64.1878 0001722 268.5428 331.3580 15.70896551    11

Отслеживайте STARLINK-11529 в реальном времени с AllMySat

Download on the App Store